Wetbulb
61.91 62.72 64.69 65.54 66.21 66.23 66.41 67.81 68.08 68.24 68.14 67.90 68.98 69.38 69.04 69.12 68.45 69.47 69.09 70.50 70.41 70.90 71.17 72.17 73.34 72.95 73.27 72.71 72.36 71.40 71.43 72.62 72.90
62.56 62.39 63.71 64.18 65.88 66.68 66.65 67.24 68.97 68.29 68.49 68.05 68.85 69.62 69.69 69.74 69.70 69.66 69.50 70.42 70.93 71.44 71.95 72.46 72.95 72.93 73.22 73.05 73.12 72.39 73.47 72.60 72.60
62.96 65.01 65.09 65.56 65.10 66.60 67.47 67.72 68.57 70.32 69.27 68.00 68.86 69.06 69.97 70.08 70.12 70.77 71.01 70.90 70.67 70.47 71.30 71.85 72.48 71.68 72.74 72.56 73.48 73.50 73.19 73.25 73.09
62.51 63.93 65.46 66.28 66.84 66.82 67.26 69.02 69.08 70.14 69.66 69.43 69.73 69.92 69.79 70.37 70.43 70.99 71.39 71.10 71.08 71.62 72.78 72.26 72.17 72.45 72.82 73.28 73.16 73.54 73.17 72.56 73.04
62.99 64.32 65.62 67.06 67.51 66.91 66.98 68.23 69.02 68.73 68.93 69.75 69.81 70.07 70.67 70.86 71.43 71.85 70.97 71.30 71.49 72.52 72.70 72.57 72.05 72.51 73.06 73.30 72.97 73.84 73.24 72.77 72.39
61.56 62.38 63.33 64.03 65.70 66.48 67.04 67.49 67.71 68.14 68.19 68.35 68.91 68.98 68.73 69.04 67.99 68.66 68.96 70.24 71.31 72.18 72.44 72.41 71.30 71.49 71.95 72.02 72.14 72.35 72.35 72.83 73.18
60.17 61.05 61.82 62.23 62.47 64.07 67.06 67.31 66.88 67.22 68.12 68.62 68.71 68.41 67.94 68.08 66.97 67.69 68.30 68.77 69.07 69.58 71.54 72.50 71.44 71.37 70.71 70.24 70.31 70.34 71.00 72.16 72.84
58.33 58.90 59.56 60.38 60.32 61.39 63.47 65.21 65.73 66.59 67.40 68.68 68.75 68.41 68.14 67.40 68.17 68.19 67.96 67.65 67.85 68.21 69.00 69.72 71.85 71.71 71.52 71.35 70.17 69.86 70.41 70.97 72.16
56.75 57.06 57.75 58.72 59.37 60.90 61.58 61.97 62.51 63.37 64.51 65.70 67.69 68.17 67.67 67.60 67.12 67.06 66.10 66.30 66.40 66.75 67.27 67.87 68.70 69.67 71.25 71.63 72.51 66.97 65.53 68.63 72.69
56.01 56.39 57.31 57.94 58.83 59.52 60.53 60.71 61.10 60.46 62.08 63.18 63.06 63.36 64.24 64.78 64.97 64.50 63.86 64.62 64.49 64.98 65.47 66.73 66.73 67.54 68.63 69.11 70.89 62.21 62.53 65.57 70.01
54.86 55.14 56.11 57.38 58.16 57.26 57.08 56.96 57.00 57.04 56.97 56.92 57.12 57.26 58.29 61.53 63.39 61.94 62.11 62.28 62.94 63.07 63.67 65.13 65.67 66.44 67.36 68.12 69.04 60.53 59.95 62.94 70.06
53.70 53.58 53.99 55.64 55.65 55.25 55.00 54.98 55.45 55.03 55.07 55.27 55.01 54.86 55.05 56.62 58.82 58.85 58.90 58.51 59.98 61.72 61.08 60.97 63.62 65.39 66.46 68.08 62.82 57.76 59.29 65.39 69.54
52.23 53.16 54.43 53.99 53.48 52.76 52.34 51.89 52.85 52.27 51.58 52.04 51.77 52.42 52.80 54.71 55.53 55.75 57.12 58.12 58.92 60.19 60.02 60.05 62.79 65.99 65.68 62.26 63.71 55.06 55.97 60.97 63.09
51.36 52.56 52.37 52.06 51.62 50.50 49.87 50.04 50.29 48.78 48.96 48.68 50.34 51.56 51.09 51.18 52.10 52.74 53.36 54.46 55.30 56.07 57.24 57.30 56.79 56.79 57.31 57.47 55.39 53.59 52.57 53.70 58.83
49.97 49.60 50.26 50.43 48.96 48.14 47.84 48.46 48.08 46.66 46.47 48.09 49.29 49.44 49.35 49.86 50.28 51.29 51.49 52.01 52.41 52.37 52.82 52.67 52.86 52.77 53.27 54.53 55.94 51.82 50.83 50.68 51.94
49.33 48.32 47.88 48.31 47.15 46.54 46.89 47.34 47.36 45.89 46.37 47.69 47.53 46.89 46.75 47.30 48.27 48.61 50.21 49.97 49.37 48.81 49.87 50.29 50.57 50.61 50.08 50.44 52.10 50.90 49.80 49.61 50.35
47.72 48.08 47.21 46.88 46.45 45.75 45.02 46.21 46.36 46.17 46.72 46.84 46.17 45.36 45.36 45.32 45.75 45.49 46.69 48.12 48.24 47.69 47.46 47.66 47.80 47.75 47.58 48.59 49.73 48.91 47.92 47.81 48.25
47.27 46.70 46.42 46.62 45.82 44.65 44.51 45.36 45.48 45.85 45.87 46.01 44.88 44.58 43.95 43.27 43.34 43.61 44.08 44.97 45.36 46.27 46.65 46.35 46.50 45.71 45.97 45.85 46.10 45.89 44.15 43.04 45.31
47.36 46.37 46.58 46.21 45.13 44.50 44.20 44.46 44.60 44.76 45.17 45.07 44.00 42.75 42.76 42.48 42.40 42.85 43.00 43.04 43.15 44.04 44.30 43.30 41.96 41.58 42.92 45.14 43.30 41.67 40.61 39.64 40.59
47.31 46.14 45.87 45.49 44.96 44.96 44.78 44.54 44.45 44.54 44.78 43.81 42.77 41.62 41.67 41.85 41.94 41.53 41.14 41.17 40.89 39.73 41.65 42.99 40.94 40.27 40.69 40.53 39.90 39.45 38.86 38.83 39.67
MSLP
1013.37 1013.77 1014.19 1014.51 1015.11 1015.73 1016.24 1016.88 1017.34 1017.86 1018.45 1019.01 1019.48 1019.96 1020.07 1020.29 1020.53 1020.99 1021.45 1021.45 1021.59 1021.62 1021.63 1021.65 1021.59 1021.85 1022.07 1022.17 1022.25 1022.52 1022.79 1022.85 1022.92
1013.79 1013.78 1014.10 1014.48 1014.87 1015.49 1016.15 1016.77 1017.40 1017.80 1018.30 1018.95 1019.40 1019.82 1020.17 1020.41 1020.49 1020.73 1021.11 1021.39 1021.43 1021.49 1021.30 1021.37 1021.49 1021.74 1021.92 1022.06 1022.24 1022.37 1022.49 1022.76 1022.90
1014.36 1014.40 1014.68 1014.97 1015.30 1015.54 1016.06 1016.61 1017.27 1017.88 1018.25 1018.93 1019.51 1019.81 1020.03 1020.24 1020.45 1020.59 1020.90 1021.05 1021.10 1021.12 1021.27 1021.29 1021.42 1021.76 1021.77 1021.88 1022.04 1022.27 1022.44 1022.63 1022.71
1014.80 1014.87 1015.09 1015.38 1015.55 1015.92 1016.31 1016.77 1017.23 1017.65 1018.16 1018.49 1019.31 1019.77 1019.84 1020.04 1020.30 1020.52 1020.80 1020.87 1020.94 1020.89 1020.85 1020.99 1021.23 1021.38 1021.64 1021.69 1021.94 1022.05 1022.41 1022.65 1022.75
1015.50 1015.50 1015.74 1015.69 1015.98 1016.17 1016.63 1017.30 1017.85 1018.07 1018.16 1018.48 1018.95 1019.29 1019.78 1019.91 1020.27 1020.48 1020.63 1020.78 1020.80 1020.71 1020.92 1020.81 1020.95 1021.04 1021.30 1021.53 1021.70 1021.79 1022.23 1022.51 1022.74
1015.76 1015.92 1016.34 1016.34 1016.32 1016.56 1017.01 1017.67 1018.16 1018.65 1018.64 1018.89 1019.02 1019.48 1019.75 1020.25 1020.62 1020.67 1020.66 1020.77 1020.75 1020.62 1020.65 1020.83 1020.97 1021.35 1021.29 1021.40 1021.56 1021.69 1021.95 1022.25 1022.48
1016.27 1016.61 1016.78 1016.72 1017.00 1017.06 1017.37 1017.61 1018.17 1017.97 1018.85 1019.02 1018.92 1019.57 1019.57 1020.65 1021.14 1021.07 1020.87 1020.90 1020.94 1020.96 1020.96 1020.83 1020.81 1020.92 1021.18 1021.44 1021.42 1021.56 1021.72 1021.78 1021.93
1016.61 1016.99 1017.11 1017.35 1017.40 1017.45 1017.82 1017.95 1018.09 1018.65 1019.12 1019.32 1019.59 1019.71 1019.99 1020.66 1021.30 1021.24 1021.07 1021.17 1021.16 1021.14 1021.22 1021.31 1021.08 1020.93 1020.98 1021.06 1021.15 1021.17 1021.48 1021.65 1021.67
1016.48 1017.04 1017.76 1017.90 1017.96 1017.97 1018.16 1018.56 1018.55 1018.91 1019.40 1019.31 1019.30 1019.69 1019.97 1020.13 1020.62 1021.20 1021.30 1021.35 1021.62 1021.49 1021.45 1021.54 1021.51 1021.55 1021.32 1021.18 1021.27 1021.21 1021.55 1021.63 1021.68
1016.87 1017.39 1017.75 1018.49 1018.52 1018.67 1019.05 1019.29 1019.46 1019.54 1019.71 1019.83 1019.98 1020.36 1020.65 1020.86 1021.17 1021.48 1021.77 1021.81 1022.15 1022.16 1021.90 1021.72 1021.79 1021.73 1021.91 1021.88 1021.93 1021.76 1021.73 1021.43 1021.38
1017.51 1018.19 1018.49 1018.83 1019.17 1019.53 1019.90 1020.29 1020.36 1020.46 1020.56 1020.87 1021.03 1021.27 1021.61 1021.46 1021.61 1021.77 1021.93 1022.03 1022.52 1022.68 1022.55 1022.51 1021.95 1021.97 1022.09 1022.45 1022.53 1022.08 1021.84 1021.56 1021.48
1018.01 1018.68 1019.13 1019.73 1020.06 1020.37 1020.75 1020.99 1021.34 1021.40 1021.71 1021.95 1022.19 1022.25 1022.59 1022.69 1022.57 1022.63 1022.56 1022.25 1022.48 1022.53 1022.87 1022.82 1022.26 1022.17 1022.22 1022.67 1023.21 1022.81 1022.25 1021.82 1021.79
1018.77 1019.53 1019.74 1020.41 1020.90 1021.19 1021.31 1021.91 1022.06 1022.30 1022.95 1023.11 1023.41 1023.48 1023.44 1023.47 1023.31 1023.29 1023.26 1023.22 1023.19 1023.37 1023.08 1022.99 1022.80 1022.38 1022.94 1023.28 1023.58 1023.55 1022.96 1022.52 1022.68
1019.73 1020.14 1020.18 1021.21 1021.88 1021.91 1021.96 1022.44 1022.68 1023.23 1023.78 1024.29 1024.47 1024.43 1024.48 1024.21 1024.15 1024.05 1024.13 1023.93 1023.94 1023.88 1023.64 1023.90 1023.57 1023.56 1023.57 1023.78 1024.19 1024.33 1023.93 1023.79 1023.62
1020.42 1020.84 1021.43 1022.04 1022.39 1022.98 1023.04 1023.28 1023.11 1023.94 1024.45 1024.83 1024.82 1024.94 1024.88 1024.95 1024.94 1024.96 1025.05 1024.74 1024.75 1024.64 1024.51 1024.33 1024.14 1023.95 1024.24 1024.59 1024.64 1024.50 1024.35 1024.15 1024.40
1021.18 1021.39 1022.07 1022.72 1022.93 1023.34 1023.46 1023.57 1023.85 1024.40 1025.24 1025.44 1025.52 1025.44 1025.54 1025.60 1025.53 1025.49 1025.54 1025.51 1025.55 1025.38 1025.43 1025.29 1025.37 1025.18 1025.28 1025.23 1025.00 1024.95 1025.23 1024.94 1024.53
1021.79 1022.35 1022.81 1023.51 1023.95 1024.44 1024.80 1024.89 1025.04 1025.03 1025.28 1025.71 1025.75 1025.80 1026.09 1026.14 1026.03 1026.08 1026.21 1026.13 1026.01 1025.86 1026.22 1026.30 1026.31 1026.37 1026.25 1026.14 1025.91 1025.94 1025.55 1025.23 1024.78
1022.17 1022.79 1023.24 1023.78 1024.02 1024.47 1024.92 1025.23 1025.37 1025.42 1025.29 1025.87 1026.04 1026.16 1026.40 1026.58 1026.59 1026.66 1026.79 1026.83 1026.86 1026.94 1027.11 1026.94 1026.91 1027.14 1027.03 1026.79 1026.87 1027.14 1027.20 1026.61 1026.28
1022.23 1022.92 1023.43 1023.90 1024.31 1024.67 1025.21 1025.44 1025.60 1025.79 1026.08 1026.18 1026.37 1026.62 1026.89 1026.99 1027.00 1027.19 1027.23 1027.24 1027.47 1027.52 1027.36 1027.45 1027.76 1027.95 1027.75 1027.56 1027.72 1027.57 1027.21 1026.88 1026.36
1022.56 1023.14 1023.59 1024.02 1024.48 1024.94 1025.40 1025.92 1026.21 1026.39 1026.41 1026.29 1026.59 1026.85 1026.97 1027.12 1027.31 1027.39 1027.42 1027.55 1027.64 1027.73 1027.84 1027.86 1028.18 1028.23 1028.09 1028.16 1028.09 1027.65 1027.19 1026.84 1026.35
Wind_Speed
12 14 13 15 13 12 12 11 12 11 11 10 8 7 6 6 7 4 3 3 3 3 3 3 3 4 4 5 4 4 3 2 2
8 13 13 10 11 9 9 8 9 11 9 7 7 6 4 5 5 6 5 4 4 3 3 2 3 3 4 4 4 4 4 2 1
6 7 5 6 6 7 8 7 6 6 7 6 3 5 5 4 5 4 4 3 4 4 3 3 3 4 5 4 4 4 4 3 2
6 5 6 5 4 5 5 4 5 7 9 10 6 6 5 5 5 4 3 4 4 4 3 4 5 5 5 5 4 4 4 4 4
5 5 5 4 6 9 8 5 6 5 4 8 6 4 3 3 2 3 4 4 3 3 4 3 5 4 4 4 5 4 5 5 4
6 7 6 4 4 8 9 9 9 6 7 6 7 7 6 8 5 5 4 4 4 3 3 3 3 4 4 4 4 4 4 4 4
6 4 6 6 5 5 10 10 7 4 6 8 6 7 10 7 5 5 6 6 7 6 5 2 2 3 4 5 4 4 4 5 5
9 7 6 5 6 6 7 7 8 6 5 5 6 7 8 8 4 5 6 6 6 6 7 7 6 3 3 4 3 4 5 5 5
12 11 8 8 9 9 9 7 8 8 6 5 6 5 4 8 5 5 6 6 5 5 6 6 6 7 7 4 3 6 6 6 6
12 12 12 10 10 10 9 9 9 10 9 10 11 10 8 6 7 8 6 6 5 6 5 4 6 6 6 6 5 7 8 7 4
12 11 12 12 10 11 10 10 12 12 12 12 11 11 10 8 8 8 8 6 5 4 4 5 4 5 6 4 5 7 6 5 3
10 11 11 10 10 11 10 11 10 12 12 11 11 10 9 7 6 7 6 8 7 5 4 4 4 3 5 7 9 14 13 8 7
12 10 11 11 11 11 12 9 10 13 11 11 10 8 8 7 8 7 7 6 5 3 3 5 4 10 9 9 10 18 17 12 6
8 8 14 9 7 9 9 6 9 11 9 9 5 6 6 8 7 9 6 6 6 5 7 6 8 8 8 10 13 13 19 18 8
11 11 10 8 10 8 5 5 10 9 9 4 6 6 7 7 7 7 6 7 7 8 7 8 8 9 8 7 7 16 17 19 15
8 11 9 6 8 8 7 7 7 10 4 5 5 8 8 7 7 7 7 7 7 6 7 6 7 6 6 6 7 8 15 14 15
8 8 9 8 9 8 7 5 6 6 6 5 7 8 7 6 7 7 7 6 6 6 6 6 6 6 6 6 7 8 9 10 10
7 6 6 6 8 7 7 6 5 4 6 5 7 7 7 7 6 7 7 7 6 6 6 6 6 6 6 7 8 9 9 7 8
7 8 6 7 6 7 5 5 5 5 4 5 6 6 5 5 5 5 6 6 5 9 10 12 12 10 8 6 8 12 13 14 14
9 6 7 8 7 6 6 5 5 4 4 6 6 5 5 5 6 6 6 6 6 6 6 8 11 12 12 13 12 15 14 13 13
Wind_Direction
155 167 175 174 177 180 187 195 191 184 183 191 179 187 190 175 170 162 210 187 209 220 205 195 202 201 201 201 175 180 186 190 167
166 176 173 178 164 172 162 185 189 208 189 185 173 179 178 196 180 178 180 214 208 214 199 204 225 229 215 208 189 178 169 199 216
106 121 128 132 173 171 157 149 157 182 174 156 160 183 185 196 204 210 172 193 229 194 217 210 228 241 239 207 201 195 188 179 196
111 91 137 133 140 162 153 82 155 175 158 157 197 190 183 193 217 195 183 201 220 235 227 211 214 226 223 207 208 197 206 208 193
133 109 107 129 157 161 156 128 108 108 133 153 151 150 181 180 236 215 203 218 247 262 259 260 228 209 221 204 206 196 212 227 219
130 124 133 106 103 150 156 140 108 106 106 96 102 108 106 84 72 76 73 46 358 315 277 264 224 222 225 206 216 211 221 239 248
109 117 131 116 98 89 151 135 134 139 143 133 125 104 98 79 84 89 86 72 51 31 348 300 242 223 217 238 229 234 236 225 233
128 117 95 108 104 87 84 120 114 122 138 158 154 144 122 123 107 83 73 56 56 53 46 19 352 297 254 244 229 249 240 246 241
129 123 115 110 96 92 85 88 93 89 84 68 93 128 140 128 113 89 67 54 34 54 54 49 43 22 10 347 313 326 316 285 265
128 126 118 106 96 92 85 82 92 84 82 79 70 65 64 80 101 93 80 77 47 24 34 66 48 45 29 25 38 27 8 347 278
123 120 113 109 94 91 85 80 78 77 71 68 67 66 49 41 73 74 71 63 71 52 24 351 57 44 43 12 23 355 14 356 13
119 115 103 100 101 94 89 83 83 76 71 69 60 53 51 39 52 61 56 55 32 21 21 342 24 44 42 65 45 15 19 33 42
111 111 114 118 112 104 91 75 83 79 70 68 61 50 57 48 51 45 48 44 33 5 28 28 359 69 56 55 55 27 29 26 30
102 120 116 100 74 91 105 100 97 87 84 74 69 65 55 51 41 60 45 42 32 26 48 48 47 53 47 57 47 37 38 28 33
124 113 97 103 106 96 79 78 95 92 80 74 73 74 69 58 51 54 46 59 46 39 35 43 39 40 41 30 38 37 28 29 29
128 112 102 86 95 81 49 57 86 94 82 84 87 78 67 61 58 49 49 61 58 53 38 43 37 40 36 20 19 26 18 20 20
115 121 123 125 115 108 96 74 76 85 93 93 87 84 77 65 64 61 48 50 48 57 52 57 51 41 33 17 17 15 7 6 1
125 123 119 129 126 120 117 112 100 94 86 87 83 81 74 69 70 64 62 58 50 50 47 47 45 35 24 17 20 9 346 345 349
144 144 132 125 118 119 124 108 96 91 103 105 99 86 81 74 72 68 67 62 57 28 40 47 43 36 39 29 32 6 356 345 340
143 133 135 146 150 142 138 136 131 135 121 110 101 102 86 76 72 68 65 61 57 46 21 38 37 24 20 27 13 352 346 347 339